Year,Month,Day,Hour,Minute,Value (Times are PST for temperature in C)
2013,07,15,00,00,14.50
2013,07,15,00,01,14.50
2013,07,15,00,02,14.50
2013,07,15,00,03,14.50
2013,07,15,00,04,14.50
2013,07,15,00,05,14.50
2013,07,15,00,06,14.50
2013,07,15,00,07,14.50
2013,07,15,00,08,14.50
2013,07,15,00,09,14.60
2013,07,15,00,10,14.60
2013,07,15,00,11,14.60
2013,07,15,00,12,14.70
2013,07,15,00,13,14.70
2013,07,15,00,14,14.70
2013,07,15,00,15,14.70
2013,07,15,00,16,14.70
2013,07,15,00,17,14.70
2013,07,15,00,18,14.70
2013,07,15,00,19,14.70
2013,07,15,00,20,14.70
2013,07,15,00,21,14.70
2013,07,15,00,22,14.70
2013,07,15,00,23,14.70
2013,07,15,00,24,14.70
2013,07,15,00,25,14.70
2013,07,15,00,26,14.60
2013,07,15,00,27,14.60
2013,07,15,00,28,14.60
2013,07,15,00,29,14.60
2013,07,15,00,30,14.60
2013,07,15,00,31,14.60
2013,07,15,00,32,14.60
2013,07,15,00,33,14.60
2013,07,15,00,34,14.60
2013,07,15,00,35,14.60
2013,07,15,00,36,14.60
2013,07,15,00,37,14.60
2013,07,15,00,38,14.60
2013,07,15,00,39,14.60
2013,07,15,00,40,14.60
2013,07,15,00,41,14.60
2013,07,15,00,42,14.60
2013,07,15,00,43,14.60
2013,07,15,00,44,14.60
2013,07,15,00,45,14.60
2013,07,15,00,46,14.60
2013,07,15,00,47,14.60
2013,07,15,00,48,14.60
2013,07,15,00,49,14.50
2013,07,15,00,50,14.50
2013,07,15,00,51,14.50
2013,07,15,00,52,14.50
2013,07,15,00,53,14.40
2013,07,15,00,54,14.40
2013,07,15,00,55,14.40
2013,07,15,00,56,14.40
2013,07,15,00,57,14.40
2013,07,15,00,58,14.40
2013,07,15,00,59,14.40
2013,07,15,01,00,14.40
2013,07,15,01,01,14.40
2013,07,15,01,02,14.40
2013,07,15,01,03,14.40
2013,07,15,01,04,14.40
2013,07,15,01,05,14.40
2013,07,15,01,06,14.40
2013,07,15,01,07,14.40
2013,07,15,01,08,14.40
2013,07,15,01,09,14.30
2013,07,15,01,10,14.30
2013,07,15,01,11,14.30
2013,07,15,01,12,14.30
2013,07,15,01,13,14.30
2013,07,15,01,14,14.30
2013,07,15,01,15,14.30
2013,07,15,01,16,14.30
2013,07,15,01,17,14.30
2013,07,15,01,18,14.20
2013,07,15,01,19,14.20
2013,07,15,01,20,14.20
2013,07,15,01,21,14.20
2013,07,15,01,22,14.20
2013,07,15,01,23,14.20
2013,07,15,01,24,14.20
2013,07,15,01,25,14.20
2013,07,15,01,26,14.20
2013,07,15,01,27,14.20
2013,07,15,01,28,14.20
2013,07,15,01,29,14.20
2013,07,15,01,30,14.20
2013,07,15,01,31,14.20
2013,07,15,01,32,14.20
2013,07,15,01,33,14.20
2013,07,15,01,34,14.20
2013,07,15,01,35,14.20
2013,07,15,01,36,14.10
2013,07,15,01,37,14.10
2013,07,15,01,38,14.10
2013,07,15,01,39,14.10
2013,07,15,01,40,14.10
2013,07,15,01,41,14.10
2013,07,15,01,42,14.00
2013,07,15,01,43,14.00
2013,07,15,01,44,14.00
2013,07,15,01,45,14.00
2013,07,15,01,46,13.90
2013,07,15,01,47,13.90
2013,07,15,01,48,13.90
2013,07,15,01,49,13.90
2013,07,15,01,50,13.90
2013,07,15,01,51,13.90
2013,07,15,01,52,13.90
2013,07,15,01,53,13.80
2013,07,15,01,54,13.80
2013,07,15,01,55,13.80
2013,07,15,01,56,13.80
2013,07,15,01,57,13.90
2013,07,15,01,58,13.90
2013,07,15,01,59,13.90
2013,07,15,02,00,13.90
2013,07,15,02,01,13.90
2013,07,15,02,02,13.90
2013,07,15,02,03,13.90
2013,07,15,02,04,13.90
2013,07,15,02,05,13.90
2013,07,15,02,06,13.90
2013,07,15,02,07,13.90
2013,07,15,02,08,13.90
2013,07,15,02,09,13.90
2013,07,15,02,10,13.90
2013,07,15,02,11,13.90
2013,07,15,02,12,13.90
2013,07,15,02,13,13.90
2013,07,15,02,14,13.90
2013,07,15,02,15,13.90
2013,07,15,02,16,13.90
2013,07,15,02,17,13.90
2013,07,15,02,18,13.90
2013,07,15,02,19,13.90
2013,07,15,02,20,13.90
2013,07,15,02,21,13.90
2013,07,15,02,22,13.90
2013,07,15,02,23,13.90
2013,07,15,02,24,13.90
2013,07,15,02,25,13.90
2013,07,15,02,26,13.90
2013,07,15,02,27,13.90
2013,07,15,02,28,14.00
2013,07,15,02,29,14.00
2013,07,15,02,30,14.00
2013,07,15,02,31,14.00
2013,07,15,02,32,14.00
2013,07,15,02,33,14.00
2013,07,15,02,34,14.00
2013,07,15,02,35,14.00
2013,07,15,02,36,14.00
2013,07,15,02,37,14.00
2013,07,15,02,38,13.90
2013,07,15,02,39,13.90
2013,07,15,02,40,13.90
2013,07,15,02,41,13.90
2013,07,15,02,42,13.90
2013,07,15,02,43,13.90
2013,07,15,02,44,13.80
2013,07,15,02,45,13.80
2013,07,15,02,46,13.80
2013,07,15,02,47,13.80
2013,07,15,02,48,13.80
2013,07,15,02,49,13.70
2013,07,15,02,50,13.70
2013,07,15,02,51,13.70
2013,07,15,02,52,13.70
2013,07,15,02,53,13.70
2013,07,15,02,54,13.70
2013,07,15,02,55,13.80
2013,07,15,02,56,13.80
2013,07,15,02,57,13.80
2013,07,15,02,58,13.90
2013,07,15,02,59,13.90
2013,07,15,03,00,13.90
2013,07,15,03,01,14.00
2013,07,15,03,02,14.00
2013,07,15,03,03,14.10
2013,07,15,03,04,14.10
2013,07,15,03,05,14.10
2013,07,15,03,06,14.20
2013,07,15,03,07,14.20
2013,07,15,03,08,14.20
2013,07,15,03,09,14.30
2013,07,15,03,10,14.30
2013,07,15,03,11,14.30
2013,07,15,03,12,14.30
2013,07,15,03,13,14.30
2013,07,15,03,14,14.30
2013,07,15,03,15,14.20
2013,07,15,03,16,14.20
2013,07,15,03,17,14.10
2013,07,15,03,18,14.00
2013,07,15,03,19,13.90
2013,07,15,03,20,13.90
2013,07,15,03,21,13.80
2013,07,15,03,22,13.70
2013,07,15,03,23,13.60
2013,07,15,03,24,13.60
2013,07,15,03,25,13.60
2013,07,15,03,26,13.50
2013,07,15,03,27,13.50
2013,07,15,03,28,13.40
2013,07,15,03,29,13.40
2013,07,15,03,30,13.30
2013,07,15,03,31,13.30
2013,07,15,03,32,13.20
2013,07,15,03,33,13.20
2013,07,15,03,34,13.20
2013,07,15,03,35,13.10
2013,07,15,03,36,13.10
2013,07,15,03,37,13.10
2013,07,15,03,38,13.10
2013,07,15,03,39,13.10
2013,07,15,03,40,13.00
2013,07,15,03,41,12.90
2013,07,15,03,42,12.90
2013,07,15,03,43,12.90
2013,07,15,03,44,12.80
2013,07,15,03,45,12.80
2013,07,15,03,46,12.80
2013,07,15,03,47,12.80
2013,07,15,03,48,12.70
2013,07,15,03,49,12.70
2013,07,15,03,50,12.70
2013,07,15,03,51,12.70
2013,07,15,03,52,12.70
2013,07,15,03,53,12.70
2013,07,15,03,54,12.70
2013,07,15,03,55,12.70
2013,07,15,03,56,12.70
2013,07,15,03,57,12.60
2013,07,15,03,58,12.70
2013,07,15,03,59,12.70
2013,07,15,04,00,12.70
2013,07,15,04,01,12.70
2013,07,15,04,02,12.70
2013,07,15,04,03,12.70
2013,07,15,04,04,12.70
2013,07,15,04,05,12.70
2013,07,15,04,06,12.70
2013,07,15,04,07,12.70
2013,07,15,04,08,12.70
2013,07,15,04,09,12.70
2013,07,15,04,10,12.70
2013,07,15,04,11,12.70
2013,07,15,04,12,12.60
2013,07,15,04,13,12.60
2013,07,15,04,14,12.60
2013,07,15,04,15,12.60
2013,07,15,04,16,12.70
2013,07,15,04,17,12.80
2013,07,15,04,18,12.80
2013,07,15,04,19,12.80
2013,07,15,04,20,12.90
2013,07,15,04,21,12.80
2013,07,15,04,22,12.80
2013,07,15,04,23,12.80
2013,07,15,04,24,12.70
2013,07,15,04,25,12.70
2013,07,15,04,26,12.70
2013,07,15,04,27,12.60
2013,07,15,04,28,12.60
2013,07,15,04,29,12.60
2013,07,15,04,30,12.50
2013,07,15,04,31,12.50
2013,07,15,04,32,12.40
2013,07,15,04,33,12.40
2013,07,15,04,34,12.30
2013,07,15,04,35,12.30
2013,07,15,04,36,12.30
2013,07,15,04,37,12.20
2013,07,15,04,38,12.20
2013,07,15,04,39,12.10
2013,07,15,04,40,12.10
2013,07,15,04,41,12.00
2013,07,15,04,42,12.00
2013,07,15,04,43,11.90
2013,07,15,04,44,11.90
2013,07,15,04,45,11.90
2013,07,15,04,46,11.90
2013,07,15,04,47,11.90
2013,07,15,04,48,12.00
2013,07,15,04,49,12.00
2013,07,15,04,50,12.00
2013,07,15,04,51,12.10
2013,07,15,04,52,12.10
2013,07,15,04,53,12.10
2013,07,15,04,54,12.10
2013,07,15,04,55,12.10
2013,07,15,04,56,12.10
2013,07,15,04,57,12.10
2013,07,15,04,58,12.10
2013,07,15,04,59,12.10
2013,07,15,05,00,12.10
2013,07,15,05,01,12.10
2013,07,15,05,02,12.20
2013,07,15,05,03,12.20
2013,07,15,05,04,12.20
2013,07,15,05,05,12.10
2013,07,15,05,06,12.10
2013,07,15,05,07,12.00
2013,07,15,05,08,12.00
2013,07,15,05,09,12.00
2013,07,15,05,10,12.00
2013,07,15,05,11,11.90
2013,07,15,05,12,11.90
2013,07,15,05,13,11.90
2013,07,15,05,14,11.90
2013,07,15,05,15,11.90
2013,07,15,05,16,11.90
2013,07,15,05,17,11.90
2013,07,15,05,18,11.90
2013,07,15,05,19,11.90
2013,07,15,05,20,11.80
2013,07,15,05,21,11.80
2013,07,15,05,22,11.80
2013,07,15,05,23,11.80
2013,07,15,05,24,11.80
2013,07,15,05,25,11.80
2013,07,15,05,26,11.80
2013,07,15,05,27,11.80
2013,07,15,05,28,11.80
2013,07,15,05,29,11.70
2013,07,15,05,30,11.70
2013,07,15,05,31,11.70
2013,07,15,05,32,11.80
2013,07,15,05,33,11.70
2013,07,15,05,34,11.70
2013,07,15,05,35,11.70
2013,07,15,05,36,11.60
2013,07,15,05,37,11.60
2013,07,15,05,38,11.50
2013,07,15,05,39,11.50
2013,07,15,05,40,11.40
2013,07,15,05,41,11.40
2013,07,15,05,42,11.40
2013,07,15,05,43,11.40
2013,07,15,05,44,11.40
2013,07,15,05,45,11.40
2013,07,15,05,46,11.40
2013,07,15,05,47,11.30
2013,07,15,05,48,11.30
2013,07,15,05,49,11.30
2013,07,15,05,50,11.30
2013,07,15,05,51,11.30
2013,07,15,05,52,11.30
2013,07,15,05,53,11.30
2013,07,15,05,54,11.30
2013,07,15,05,55,11.30
2013,07,15,05,56,11.30
2013,07,15,05,57,11.40
2013,07,15,05,58,11.40
2013,07,15,05,59,11.40
2013,07,15,06,00,11.50
2013,07,15,06,01,11.50
2013,07,15,06,02,11.50
2013,07,15,06,03,11.50
2013,07,15,06,04,11.60
2013,07,15,06,05,11.60
2013,07,15,06,06,11.60
2013,07,15,06,07,11.60
2013,07,15,06,08,11.60
2013,07,15,06,09,11.60
2013,07,15,06,10,11.60
2013,07,15,06,11,11.60
2013,07,15,06,12,11.60
2013,07,15,06,13,11.60
2013,07,15,06,14,11.70
2013,07,15,06,15,11.70
2013,07,15,06,16,11.70
2013,07,15,06,17,11.70
2013,07,15,06,18,11.70
2013,07,15,06,19,11.70
2013,07,15,06,20,11.70
2013,07,15,06,21,11.80
2013,07,15,06,22,11.80
2013,07,15,06,23,11.80
2013,07,15,06,24,11.90
2013,07,15,06,25,11.90
2013,07,15,06,26,12.00
2013,07,15,06,27,12.00
2013,07,15,06,28,12.10
2013,07,15,06,29,12.10
2013,07,15,06,30,12.20
2013,07,15,06,31,12.20
2013,07,15,06,32,12.20
2013,07,15,06,33,12.30
2013,07,15,06,34,12.30
2013,07,15,06,35,12.40
2013,07,15,06,36,12.40
2013,07,15,06,37,12.40
2013,07,15,06,38,12.40
2013,07,15,06,39,12.50
2013,07,15,06,40,12.50
2013,07,15,06,41,12.60
2013,07,15,06,42,12.60
2013,07,15,06,43,12.60
2013,07,15,06,44,12.70
2013,07,15,06,45,12.70
2013,07,15,06,46,12.70
2013,07,15,06,47,12.80
2013,07,15,06,48,12.80
2013,07,15,06,49,12.80
2013,07,15,06,50,12.90
2013,07,15,06,51,12.90
2013,07,15,06,52,12.90
2013,07,15,06,53,13.00
2013,07,15,06,54,13.00
2013,07,15,06,55,13.00
2013,07,15,06,56,13.10
2013,07,15,06,57,13.10
2013,07,15,06,58,13.10
2013,07,15,06,59,13.10
2013,07,15,07,00,13.10
2013,07,15,07,01,13.20
2013,07,15,07,02,13.20
2013,07,15,07,03,13.30
2013,07,15,07,04,13.30
2013,07,15,07,05,13.40
2013,07,15,07,06,13.40
2013,07,15,07,07,13.50
2013,07,15,07,08,13.50
2013,07,15,07,09,13.60
2013,07,15,07,10,13.70
2013,07,15,07,11,13.70
2013,07,15,07,12,13.80
2013,07,15,07,13,13.80
2013,07,15,07,14,13.90
2013,07,15,07,15,14.00
2013,07,15,07,16,14.10
2013,07,15,07,17,14.10
2013,07,15,07,18,14.20
2013,07,15,07,19,14.30
2013,07,15,07,20,14.30
2013,07,15,07,21,14.40
2013,07,15,07,22,14.40
2013,07,15,07,23,14.50
2013,07,15,07,24,14.50
2013,07,15,07,25,14.50
2013,07,15,07,26,14.60
2013,07,15,07,27,14.60
2013,07,15,07,28,14.60
2013,07,15,07,29,14.60
2013,07,15,07,30,14.70
2013,07,15,07,31,14.70
2013,07,15,07,32,14.70
2013,07,15,07,33,14.80
2013,07,15,07,34,14.80
2013,07,15,07,35,14.90
2013,07,15,07,36,14.90
2013,07,15,07,37,15.00
2013,07,15,07,38,15.00
2013,07,15,07,39,15.10
2013,07,15,07,40,15.10
2013,07,15,07,41,15.20
2013,07,15,07,42,15.20
2013,07,15,07,43,15.30
2013,07,15,07,44,15.40
2013,07,15,07,45,15.50
2013,07,15,07,46,15.50
2013,07,15,07,47,15.70
2013,07,15,07,48,15.70
2013,07,15,07,49,15.80
2013,07,15,07,50,15.90
2013,07,15,07,51,15.90
2013,07,15,07,52,16.00
2013,07,15,07,53,16.10
2013,07,15,07,54,16.10
2013,07,15,07,55,16.20
2013,07,15,07,56,16.20
2013,07,15,07,57,16.20
2013,07,15,07,58,16.20
2013,07,15,07,59,16.30
2013,07,15,08,00,16.30
2013,07,15,08,01,16.30
2013,07,15,08,02,16.40
2013,07,15,08,03,16.40
2013,07,15,08,04,16.50
2013,07,15,08,05,16.60
2013,07,15,08,06,16.70
2013,07,15,08,07,16.80
2013,07,15,08,08,16.90
2013,07,15,08,09,17.00
2013,07,15,08,10,17.00
2013,07,15,08,11,17.10
2013,07,15,08,12,17.10
2013,07,15,08,13,17.20
2013,07,15,08,14,17.20
2013,07,15,08,15,17.30
2013,07,15,08,16,17.40
2013,07,15,08,17,17.40
2013,07,15,08,18,17.50
2013,07,15,08,19,17.60
2013,07,15,08,20,17.80
2013,07,15,08,21,17.80
2013,07,15,08,22,17.90
2013,07,15,08,23,17.90
2013,07,15,08,24,17.80
2013,07,15,08,25,17.80
2013,07,15,08,26,17.80
2013,07,15,08,27,17.80
2013,07,15,08,28,17.70
2013,07,15,08,29,17.70
2013,07,15,08,30,17.70
2013,07,15,08,31,17.70
2013,07,15,08,32,17.70
2013,07,15,08,33,17.80
2013,07,15,08,34,17.80
2013,07,15,08,35,17.80
2013,07,15,08,36,17.90
2013,07,15,08,37,18.00
2013,07,15,08,38,18.00
2013,07,15,08,39,18.10
2013,07,15,08,40,18.20
2013,07,15,08,41,18.30
2013,07,15,08,42,18.30
2013,07,15,08,43,18.40
2013,07,15,08,44,18.50
2013,07,15,08,45,18.60
2013,07,15,08,46,18.70
2013,07,15,08,47,18.80
2013,07,15,08,48,18.80
2013,07,15,08,49,18.90
2013,07,15,08,50,18.90
2013,07,15,08,51,18.90
2013,07,15,08,52,19.00
2013,07,15,08,53,19.00
2013,07,15,08,54,19.00
2013,07,15,08,55,19.10
2013,07,15,08,56,19.10
2013,07,15,08,57,19.20
2013,07,15,08,58,19.20
2013,07,15,08,59,19.20
2013,07,15,09,00,19.30
2013,07,15,09,01,19.40
2013,07,15,09,02,19.40
2013,07,15,09,03,19.40
2013,07,15,09,04,19.50
2013,07,15,09,05,19.60
2013,07,15,09,06,19.60
2013,07,15,09,07,19.60
2013,07,15,09,08,19.60
2013,07,15,09,09,19.70
2013,07,15,09,10,19.70
2013,07,15,09,11,19.70
2013,07,15,09,12,19.80
2013,07,15,09,13,19.80
2013,07,15,09,14,19.80
2013,07,15,09,15,19.80
2013,07,15,09,16,19.70
2013,07,15,09,17,19.70
2013,07,15,09,18,19.70
2013,07,15,09,19,19.70
2013,07,15,09,20,19.60
2013,07,15,09,21,19.60
2013,07,15,09,22,19.60
2013,07,15,09,23,19.60
2013,07,15,09,24,19.70
2013,07,15,09,25,19.70
2013,07,15,09,26,19.70
2013,07,15,09,27,19.80
2013,07,15,09,28,19.80
2013,07,15,09,29,19.80
2013,07,15,09,30,19.80
2013,07,15,09,31,19.80
2013,07,15,09,32,19.80
2013,07,15,09,33,19.90
2013,07,15,09,34,19.90
2013,07,15,09,35,19.90
2013,07,15,09,36,19.90
2013,07,15,09,37,19.90
2013,07,15,09,38,19.90
2013,07,15,09,39,19.90
2013,07,15,09,40,19.90
2013,07,15,09,41,20.00
2013,07,15,09,42,20.00
2013,07,15,09,43,20.10
2013,07,15,09,44,20.20
2013,07,15,09,45,20.30
2013,07,15,09,46,20.40
2013,07,15,09,47,20.40
2013,07,15,09,48,20.40
2013,07,15,09,49,20.30
2013,07,15,09,50,20.30
2013,07,15,09,51,20.30
2013,07,15,09,52,20.30
2013,07,15,09,53,20.20
2013,07,15,09,54,20.20
2013,07,15,09,55,20.20
2013,07,15,09,56,20.30
2013,07,15,09,57,20.30
2013,07,15,09,58,20.30
2013,07,15,09,59,20.30
2013,07,15,10,00,20.40
2013,07,15,10,01,20.40
2013,07,15,10,02,20.40
2013,07,15,10,03,20.40
2013,07,15,10,04,20.40
2013,07,15,10,05,20.40
2013,07,15,10,06,20.50
2013,07,15,10,07,20.50
2013,07,15,10,08,20.50
2013,07,15,10,09,20.50
2013,07,15,10,10,20.50
2013,07,15,10,11,20.40
2013,07,15,10,12,20.40
2013,07,15,10,13,20.40
2013,07,15,10,14,20.40
2013,07,15,10,15,20.50
2013,07,15,10,16,20.50
2013,07,15,10,17,20.60
2013,07,15,10,18,20.60
2013,07,15,10,19,20.70
2013,07,15,10,20,20.70
2013,07,15,10,21,20.80
2013,07,15,10,22,20.70
2013,07,15,10,23,20.70
2013,07,15,10,24,20.80
2013,07,15,10,25,20.80
2013,07,15,10,26,20.70
2013,07,15,10,27,20.70
2013,07,15,10,28,20.80
2013,07,15,10,29,20.80
2013,07,15,10,30,20.80
2013,07,15,10,31,20.80
2013,07,15,10,32,20.80
2013,07,15,10,33,20.80
2013,07,15,10,34,20.80
2013,07,15,10,35,20.80
2013,07,15,10,36,20.80
2013,07,15,10,37,20.80
2013,07,15,10,38,20.90
2013,07,15,10,39,20.90
2013,07,15,10,40,20.90
2013,07,15,10,41,20.90
2013,07,15,10,42,21.00
2013,07,15,10,43,21.00
2013,07,15,10,44,21.10
2013,07,15,10,45,21.20
2013,07,15,10,46,21.20
2013,07,15,10,47,21.20
2013,07,15,10,48,21.20
2013,07,15,10,49,21.20
2013,07,15,10,50,21.20
2013,07,15,10,51,21.10
2013,07,15,10,52,21.10
2013,07,15,10,53,21.10
2013,07,15,10,54,21.10
2013,07,15,10,55,21.10
2013,07,15,10,56,21.10
2013,07,15,10,57,21.10
2013,07,15,10,58,21.10
2013,07,15,10,59,21.10
2013,07,15,11,00,21.10
2013,07,15,11,01,21.10
2013,07,15,11,02,21.20
2013,07,15,11,03,21.20
2013,07,15,11,04,21.30
2013,07,15,11,05,21.40
2013,07,15,11,06,21.50
2013,07,15,11,07,21.60
2013,07,15,11,08,21.70
2013,07,15,11,09,21.70
2013,07,15,11,10,21.60
2013,07,15,11,11,21.60
2013,07,15,11,12,21.60
2013,07,15,11,13,21.70
2013,07,15,11,14,21.70
2013,07,15,11,15,21.80
2013,07,15,11,16,21.80
2013,07,15,11,17,21.80
2013,07,15,11,18,21.80
2013,07,15,11,19,21.70
2013,07,15,11,20,21.80
2013,07,15,11,21,21.90
2013,07,15,11,22,22.00
2013,07,15,11,23,22.00
2013,07,15,11,24,22.00
2013,07,15,11,25,22.00
2013,07,15,11,26,21.90
2013,07,15,11,27,21.90
2013,07,15,11,28,21.80
2013,07,15,11,29,21.80
2013,07,15,11,30,21.70
2013,07,15,11,31,21.70
2013,07,15,11,32,21.70
2013,07,15,11,33,21.80
2013,07,15,11,34,21.90
2013,07,15,11,35,22.00
2013,07,15,11,36,22.00
2013,07,15,11,37,22.10
2013,07,15,11,38,22.10
2013,07,15,11,39,22.10
2013,07,15,11,40,22.10
2013,07,15,11,41,22.20
2013,07,15,11,42,22.20
2013,07,15,11,43,22.20
2013,07,15,11,44,22.20
2013,07,15,11,45,22.10
2013,07,15,11,46,22.00
2013,07,15,11,47,22.00
2013,07,15,11,48,21.90
2013,07,15,11,49,22.00
2013,07,15,11,50,22.00
2013,07,15,11,51,22.00
2013,07,15,11,52,22.10
2013,07,15,11,53,22.20
2013,07,15,11,54,22.20
2013,07,15,11,55,22.20
2013,07,15,11,56,22.10
2013,07,15,11,57,22.00
2013,07,15,11,58,22.00
2013,07,15,11,59,22.00
2013,07,15,12,00,22.00
2013,07,15,12,01,22.10
2013,07,15,12,02,22.20
2013,07,15,12,03,22.30
2013,07,15,12,04,22.30
2013,07,15,12,05,22.30
2013,07,15,12,06,22.30
2013,07,15,12,07,22.40
2013,07,15,12,08,22.40
2013,07,15,12,09,22.30
2013,07,15,12,10,22.30
2013,07,15,12,11,22.30
2013,07,15,12,12,22.40
2013,07,15,12,13,22.50
2013,07,15,12,14,22.50
2013,07,15,12,15,22.50
2013,07,15,12,16,22.50
2013,07,15,12,17,22.60
2013,07,15,12,18,22.60
2013,07,15,12,19,22.50
2013,07,15,12,20,22.50
2013,07,15,12,21,22.50
2013,07,15,12,22,22.50
2013,07,15,12,23,22.60
2013,07,15,12,24,22.60
2013,07,15,12,25,22.60
2013,07,15,12,26,22.60
2013,07,15,12,27,22.60
2013,07,15,12,28,22.70
2013,07,15,12,29,22.70
2013,07,15,12,30,22.70
2013,07,15,12,31,22.70
2013,07,15,12,32,22.70
2013,07,15,12,33,22.80
2013,07,15,12,34,22.80
2013,07,15,12,35,22.70
2013,07,15,12,36,22.80
2013,07,15,12,37,23.00
2013,07,15,12,38,23.10
2013,07,15,12,39,23.10
2013,07,15,12,40,23.10
2013,07,15,12,41,23.10
2013,07,15,12,42,23.10
2013,07,15,12,43,23.20
2013,07,15,12,44,23.20
2013,07,15,12,45,23.30
2013,07,15,12,46,23.30
2013,07,15,12,47,23.30
2013,07,15,12,48,23.30
2013,07,15,12,49,23.30
2013,07,15,12,50,23.40
2013,07,15,12,51,23.50
2013,07,15,12,52,23.50
2013,07,15,12,53,23.60
2013,07,15,12,54,23.60
2013,07,15,12,55,23.60
2013,07,15,12,56,23.60
2013,07,15,12,57,23.50
2013,07,15,12,58,23.50
2013,07,15,12,59,23.50
2013,07,15,13,00,23.60
2013,07,15,13,01,23.70
2013,07,15,13,02,23.80
2013,07,15,13,03,23.90
2013,07,15,13,04,24.00
2013,07,15,13,05,24.10
2013,07,15,13,06,24.20
2013,07,15,13,07,24.30
2013,07,15,13,08,24.30
2013,07,15,13,09,24.30
2013,07,15,13,10,24.20
2013,07,15,13,11,24.10
2013,07,15,13,12,24.00
2013,07,15,13,13,23.90
2013,07,15,13,14,23.90
2013,07,15,13,15,23.90
2013,07,15,13,16,23.90
2013,07,15,13,17,23.90
2013,07,15,13,18,23.80
2013,07,15,13,19,23.90
2013,07,15,13,20,23.90
2013,07,15,13,21,23.90
2013,07,15,13,22,24.00
2013,07,15,13,23,24.20
2013,07,15,13,24,24.30
2013,07,15,13,25,24.40
2013,07,15,13,26,24.50
2013,07,15,13,27,24.60
2013,07,15,13,28,24.70
2013,07,15,13,29,24.80
2013,07,15,13,30,24.80
2013,07,15,13,31,24.60
2013,07,15,13,32,24.60
2013,07,15,13,33,24.60
2013,07,15,13,34,24.50
2013,07,15,13,35,24.50
2013,07,15,13,36,24.60
2013,07,15,13,37,24.60
2013,07,15,13,38,24.60
2013,07,15,13,39,24.70
2013,07,15,13,40,24.80
2013,07,15,13,41,24.80
2013,07,15,13,42,24.80
2013,07,15,13,43,24.90
2013,07,15,13,44,24.80
2013,07,15,13,45,24.80
2013,07,15,13,46,24.80
2013,07,15,13,47,24.70
2013,07,15,13,48,24.70
2013,07,15,13,49,24.80
2013,07,15,13,50,24.80
2013,07,15,13,51,24.80
2013,07,15,13,52,24.90
2013,07,15,13,53,25.10
2013,07,15,13,54,25.20
2013,07,15,13,55,25.40
2013,07,15,13,56,25.30
2013,07,15,13,57,25.30
2013,07,15,13,58,25.30
2013,07,15,13,59,25.20
2013,07,15,14,00,25.20
2013,07,15,14,01,25.20
2013,07,15,14,02,25.10
2013,07,15,14,03,25.10
2013,07,15,14,04,25.00
2013,07,15,14,05,25.00
2013,07,15,14,06,24.90
2013,07,15,14,07,24.80
2013,07,15,14,08,24.80
2013,07,15,14,09,24.80
2013,07,15,14,10,24.80
2013,07,15,14,11,24.80
2013,07,15,14,12,24.80
2013,07,15,14,13,24.80
2013,07,15,14,14,24.90
2013,07,15,14,15,24.90
2013,07,15,14,16,25.00
2013,07,15,14,17,25.10
2013,07,15,14,18,25.20
2013,07,15,14,19,25.20
2013,07,15,14,20,25.30
2013,07,15,14,21,25.40
2013,07,15,14,22,25.50
2013,07,15,14,23,25.50
2013,07,15,14,24,25.50
2013,07,15,14,25,25.50
2013,07,15,14,26,25.50
2013,07,15,14,27,25.40
2013,07,15,14,28,25.40
2013,07,15,14,29,25.30
2013,07,15,14,30,25.30
2013,07,15,14,31,25.30
2013,07,15,14,32,25.30
2013,07,15,14,33,25.20
2013,07,15,14,34,25.20
2013,07,15,14,35,25.30
2013,07,15,14,36,25.30
2013,07,15,14,37,25.20
2013,07,15,14,38,25.20
2013,07,15,14,39,25.20
2013,07,15,14,40,25.10
2013,07,15,14,41,25.00
2013,07,15,14,42,25.00
2013,07,15,14,43,25.00
2013,07,15,14,44,25.10
2013,07,15,14,45,25.10
2013,07,15,14,46,25.20
2013,07,15,14,47,25.10
2013,07,15,14,48,25.10
2013,07,15,14,49,25.10
2013,07,15,14,50,25.00
2013,07,15,14,51,25.00
2013,07,15,14,52,25.00
2013,07,15,14,53,25.10
2013,07,15,14,54,25.10
2013,07,15,14,55,25.10
2013,07,15,14,56,25.20
2013,07,15,14,57,25.20
2013,07,15,14,58,25.20
2013,07,15,14,59,25.20
2013,07,15,15,00,25.20
2013,07,15,15,01,25.30
2013,07,15,15,02,25.40
2013,07,15,15,03,25.60
2013,07,15,15,04,25.80
2013,07,15,15,05,25.80
2013,07,15,15,06,25.90
2013,07,15,15,07,25.80
2013,07,15,15,08,25.80
2013,07,15,15,09,25.80
2013,07,15,15,10,25.80
2013,07,15,15,11,25.80
2013,07,15,15,12,25.80
2013,07,15,15,13,25.90
2013,07,15,15,14,25.90
2013,07,15,15,15,26.00
2013,07,15,15,16,26.10
2013,07,15,15,17,26.10
2013,07,15,15,18,26.30
2013,07,15,15,19,26.30
2013,07,15,15,20,26.40
2013,07,15,15,21,26.30
2013,07,15,15,22,26.30
2013,07,15,15,23,26.20
2013,07,15,15,24,26.20
2013,07,15,15,25,26.20
2013,07,15,15,26,26.10
2013,07,15,15,27,26.00
2013,07,15,15,28,25.90
2013,07,15,15,29,25.90
2013,07,15,15,30,26.00
2013,07,15,15,31,26.00
2013,07,15,15,32,26.00
2013,07,15,15,33,26.00
2013,07,15,15,34,26.10
2013,07,15,15,35,26.20
2013,07,15,15,36,26.20
2013,07,15,15,37,26.20
2013,07,15,15,38,26.20
2013,07,15,15,39,26.10
2013,07,15,15,40,26.00
2013,07,15,15,41,25.90
2013,07,15,15,42,25.90
2013,07,15,15,43,26.00
2013,07,15,15,44,26.00
2013,07,15,15,45,26.00
2013,07,15,15,46,26.10
2013,07,15,15,47,26.10
2013,07,15,15,48,26.20
2013,07,15,15,49,26.20
2013,07,15,15,50,26.30
2013,07,15,15,51,26.40
2013,07,15,15,52,26.30
2013,07,15,15,53,26.30
2013,07,15,15,54,26.20
2013,07,15,15,55,26.20
2013,07,15,15,56,26.30
2013,07,15,15,57,26.30
2013,07,15,15,58,26.30
2013,07,15,15,59,26.30
2013,07,15,16,00,26.30
2013,07,15,16,01,26.30
2013,07,15,16,02,26.40
2013,07,15,16,03,26.50
2013,07,15,16,04,26.60
2013,07,15,16,05,26.70
2013,07,15,16,06,26.70
2013,07,15,16,07,26.70
2013,07,15,16,08,26.60
2013,07,15,16,09,26.50
2013,07,15,16,10,26.40
2013,07,15,16,11,26.40
2013,07,15,16,12,26.30
2013,07,15,16,13,26.30
2013,07,15,16,14,26.20
2013,07,15,16,15,26.20
2013,07,15,16,16,26.20
2013,07,15,16,17,26.30
2013,07,15,16,18,26.30
2013,07,15,16,19,26.30
2013,07,15,16,20,26.30
2013,07,15,16,21,26.40
2013,07,15,16,22,26.50
2013,07,15,16,23,26.60
2013,07,15,16,24,26.70
2013,07,15,16,25,26.80
2013,07,15,16,26,26.80
2013,07,15,16,27,26.70
2013,07,15,16,28,26.60
2013,07,15,16,29,26.60
2013,07,15,16,30,26.50
2013,07,15,16,31,26.50
2013,07,15,16,32,26.50
2013,07,15,16,33,26.60
2013,07,15,16,34,26.60
2013,07,15,16,35,26.60
2013,07,15,16,36,26.60
2013,07,15,16,37,26.50
2013,07,15,16,38,26.40
2013,07,15,16,39,26.40
2013,07,15,16,40,26.50
2013,07,15,16,41,26.50
2013,07,15,16,42,26.50
2013,07,15,16,43,26.50
2013,07,15,16,44,26.50
2013,07,15,16,45,26.50
2013,07,15,16,46,26.40
2013,07,15,16,47,26.40
2013,07,15,16,48,26.50
2013,07,15,16,49,26.50
2013,07,15,16,50,26.50
2013,07,15,16,51,26.40
2013,07,15,16,52,26.40
2013,07,15,16,53,26.30
2013,07,15,16,54,26.30
2013,07,15,16,55,26.40
2013,07,15,16,56,26.40
2013,07,15,16,57,26.40
2013,07,15,16,58,26.40
2013,07,15,16,59,26.50
2013,07,15,17,00,26.50
2013,07,15,17,01,26.50
2013,07,15,17,02,26.40
2013,07,15,17,03,26.40
2013,07,15,17,04,26.30
2013,07,15,17,05,26.30
2013,07,15,17,06,26.30
2013,07,15,17,07,26.30
2013,07,15,17,08,26.30
2013,07,15,17,09,26.40
2013,07,15,17,10,26.40
2013,07,15,17,11,26.40
2013,07,15,17,12,26.30
2013,07,15,17,13,26.40
2013,07,15,17,14,26.40
2013,07,15,17,15,26.40
2013,07,15,17,16,26.40
2013,07,15,17,17,26.30
2013,07,15,17,18,26.40
2013,07,15,17,19,26.40